Regional Weather Roundup
Issued by NWS

Home | Current Version | Previous Version | Text Only | Print | Product List | Glossary Off
Versions: 1 2 3 4 5 6 7 8 9 10 11 12 13 14 15 16 17 18 19 20 21 22 23 24 25 26 27 28 29 30 31 32 33 34 35 36 37 38 39 40 41 42 43 44 45 46 47 48 49 50

401
ASUS45 KBOU 241007
RWRCO

WEATHER ROUNDUP FOR COLORADO
NATIONAL WEATHER SERVICE DENVER/BOULDER CO
400 AM MDT MON JUL 24 2017

NOTE: "FAIR" INDICATES FEW OR NO CLOUDS BELOW 12000 FEET WITH NO
SIGNIFICANT WEATHER AND/OR OBSTRUCTIONS TO VISIBILITY.

COZ001>005-013-030-031-241100-
...NORTHWEST COLORADO...

CITY           SKY/WX    TMP DP  RH WIND       PRES   REMARKS
CRAIG          FAIR      52  45  77 CALM      30.18S
HAYDEN         FAIR      55  34  44 S6        30.21S
MEEKER         FAIR      54  45  71 NE5       30.20S
RABBIT EARS PA FAIR      54  34  47 W3        30.51S
STEAMBOAT SPGS FAIR      54  41  62 CALM      30.24S
WALDEN         FAIR      46  37  71 S5        30.34R
$$

COZ006>008-011-241100-
...WEST CENTRAL VALLEYS...

CITY           SKY/WX    TMP DP  RH WIND       PRES   REMARKS
GRAND JUNCTION FAIR      72  49  44 E13       30.07S
MONTROSE       FAIR      62  48  60 SE8       30.19R
EAGLE          FAIR      56  46  69 E6        30.27R
RIFLE          FAIR      63  46  54 SE3       30.15R
DELTA          FAIR      66  44  44 CALM      30.14S
NUCLA          FAIR      63  45  51 E8        30.23S
$$

COZ017>023-064>068-241100-
...SOUTHWEST COLORADO...

CITY           SKY/WX    TMP DP  RH WIND       PRES   REMARKS
DURANGO        CLOUDY    61  54  77 NW3       30.29S
CORTEZ         FAIR      66  56  70 CALM      30.21S
PAGOSA SPRINGS CLOUDY    62  48  59 NW13      30.36S
TELLURIDE      MOCLDY    60  46  59 CALM      30.45S
WOLF CREEK PAS NOT AVBL
$$

COZ009-010-012-014-032>034-037-058>063-241100-
...CENTRAL COLORADO...

CITY           SKY/WX    TMP DP  RH WIND       PRES   REMARKS
ASPEN          FAIR      50  42  74 CALM      30.31S
BUENA VISTA    FAIR      51  47  84 CALM      30.36S
COPPER MTN     FAIR      54  34  47 SW7       30.64S
BERTHOUD PASS  FAIR      45  32  61 NW13      30.66S
COTTONWOOD PAS FAIR      59  37  44 CALM      30.48S
GUNNISON       FAIR      55  47  74 N5        30.36S
KREMMLING      FAIR      54  45  71 CALM      30.31S
LEADVILLE      FAIR      42  37  82 NE5       30.47F
MONARCH PASS   FAIR      46  37  71 SW17      30.73F
SALIDA         FAIR      56  47  71 W3        30.40F
SUNLIGHT       FAIR      50  36  57 SW8       30.56S
WILKERSON PASS FAIR      46  41  81 SW9       30.59F
$$

COZ069>075-241100-
...SAN LUIS VALLEY/SANGRE DE CRISTO MOUNTAINS...

CITY           SKY/WX    TMP DP  RH WIND       PRES   REMARKS
ALAMOSA        FAIR      53  50  89 SW6       30.33R
DEL NORTE      FAIR      55  45  69 W7        30.36F
LA VETA PASS   NOT AVBL
SAGUACHE         N/A    N/A N/A N/A MISG        N/A
$$

COZ035-036-038>040-241100-
...NORTHERN COLORADO FRONT RANGE...

CITY           SKY/WX    TMP DP  RH WIND       PRES   REMARKS
DENVER INTL AP FAIR      67  54  63 S15       30.08F
DMNS CITY PARK   N/A     72  52  49 E9G16     30.07S
AURORA         PTCLDY    69  55  62 S18       30.10F
FRONT RANGE AP FAIR      68  55  64 SE12      30.11F
ERIE MUNI ARPT FAIR      67  50  55 SW3       30.05F
BOULDER MUN AP FAIR      64  46  52 S3        30.06S
CENTENNIAL     FAIR      68  55  63 S14       30.12F
BROOMFIELD     FAIR      70  50  49 S7        30.09S
FORT COLLINS   FAIR      62  51  67 N7        30.06S
LONGMONT       FAIR      61  49  62 W3        30.06F
$$

COZ041-046-047-076>085-087-088-241100-
...PIKES PEAK/PALMER DIVIDE AND SOUTHERN FOOTHILLS...

CITY           SKY/WX    TMP DP  RH WIND       PRES   REMARKS
COLO. SPRINGS  FAIR      63  57  81 E3        30.22F
A. F. ACADEMY  FAIR      60  54  81 CALM      30.23F
SCHRIEVER AFB  FAIR      60  55  83 E10       30.22F
CHEYENNE MTN   FAIR      61  54  77 CALM      30.21F
ELLICOTT       FAIR     N/A N/A N/A S10       30.21S
FALCON           N/A     58  55  89 CALM      30.27F
FORT CARSON    FAIR      60  55  83 CALM      30.19F
LIMON          FAIR      63  60  90 SE13      30.16F
MONUMENT HILL  FAIR      59  52  77 S13       30.25F
CANON CITY     CLEAR     64  57  77 W8        30.16S
WALSENBURG     FAIR      57  50  77 CALM      30.21R
TRINIDAD       FAIR      61  51  70 W12       30.19F
$$

COZ042>045-048>051-090-091-241100-
...NORTHEAST COLORADO...

CITY           SKY/WX    TMP DP  RH WIND       PRES   REMARKS
GREELEY ARPT   FAIR      70  56  61 CALM      30.05S
AKRON          FAIR      69  58  67 S14       30.08
BURLINGTON     FAIR      63  60  90 SW8       30.10
WRAY           NOT AVBL
YUMA           FAIR      64  52  63 S10       30.06S
STERLING       FAIR      64  59  82 SW6       30.03S
HOLYOKE        FAIR      61  55  82 SE5       30.04S
FORT MORGAN    FAIR      67  57  69 S8        30.06F
$$

COZ086-089-092>099-241100-
...SOUTHEAST COLORADO...

CITY           SKY/WX    TMP DP  RH WIND       PRES   REMARKS
PUEBLO         FAIR      66  55  67 E9        30.11F
LA JUNTA       FAIR      67  60  78 NE5       30.10
LAMAR          FAIR      66  61  84 N3        30.06
SPRINGFIELD      N/A     62  60  93 SW6       30.12F
$$




USA.gov is the U.S. government's official web portal to all federal, state and local government web resources and services.